Flag for Canada Weather past 2 weeks in Caledon, Ontario, Canada

Now
54 °F

Overcast.


Feels Like: N/A
Forecast: 43 / 65 °F
Wind: N/A

Location: Borden

Current Time: Sep 17, 2014 at 9:17:54 AM

Latest Report: Sep 17, 2014 at 9:00 AM


Visibility: 9 mi

Pressure: 30.01 "Hg

Humidity: 88%

Dew point: 50 °F

Location of CaledonLocation

Historic Weather in Caledon — Graph

°F

Caledon temperature yesterday

Maximum temperature yesterday: 63 °F (at 2:00 PM)
Minimum temperature yesterday: 41 °F (at 7:00 AM)
Average temperature yesterday: 52 °F

Past Weeks' High & Low Weather Summary

 TemperatureHumidityPressure
High90 °F (Sep 5, 2:00 PM)100% (Sep 2, 1:04 PM)30.34 "Hg (Sep 2, 1:04 PM)
Low39 °F (Sep 14, 1:00 AM)38% (Sep 8, 6:00 PM)29.49 "Hg (Sep 11, 3:01 AM)
Average59 °F85%30.05 "Hg
* Reported Sep 2 8:00 AM — Sep 17 8:00 AM, Caledon, Weather by CustomWeather, © 2014

Note: Actual official high and low records may vary slightly from our data, if they occured in-between our weather recording intervals... More about our weather records

Advertising

Caledon weather history for previous 24 hours

 ConditionsComfort  
Time TempWeatherWind HumidityBarometerVisibility
8:00 AM
Sep 17
46 °FScattered clouds.2 mph100%30.02 "Hg9 mi
7:00 AM43 °FPassing clouds.6 mph100%30.01 "Hg9 mi
6:00 AM41 °FClear.2 mph100%30.01 "Hg9 mi
5:00 AM41 °FClear.3 mph100%30.02 "Hg9 mi
4:00 AM39 °FClear.2 mph100%30.02 "Hg9 mi
3:00 AM43 °FClear.No wind100%30.02 "Hg9 mi
2:00 AM41 °FClear.3 mph100%30.03 "Hg9 mi
1:00 AM41 °FClear.2 mph100%30.04 "Hg9 mi
12:00 AM43 °FClear.5 mph100%30.04 "Hg9 mi
11:00 PM
Sep 16
43 °FClear.2 mph100%30.05 "Hg9 mi
10:00 PM45 °FClear.3 mph93%30.05 "Hg9 mi
9:00 PM46 °FClear.No wind93%30.06 "Hg9 mi
8:00 PM48 °FPassing clouds.No wind94%30.06 "Hg9 mi
7:00 PM57 °FPassing clouds.3 mph63%30.06 "Hg9 mi
6:00 PM59 °FScattered clouds.7 mph59%30.05 "Hg9 mi
5:00 PM61 °FPartly sunny.6 mph59%30.05 "Hg9 mi
4:00 PM63 °FOvercast.6 mph59%30.05 "Hg9 mi
3:00 PM63 °FMild.12 mph49%30.04 "Hg9 mi
2:00 PM63 °FMild.12 mph49%30.05 "Hg9 mi
1:00 PM59 °FCool.6 mph63%30.07 "Hg9 mi
12:00 PM59 °FPartly sunny.10 mph59%30.09 "Hg9 mi
11:00 AM59 °FSunny.9 mph55%30.10 "Hg9 mi
10:00 AM55 °FSunny.10 mph72%30.10 "Hg9 mi
9:00 AM52 °FSunny.8 mph94%30.10 "Hg9 mi
Weather by CustomWeather, © 2014

See weather overviewHow to use our weather pages